Location: Davayat
(45.9471°N, 3.1105°E)
Time: 22:10:10
(UTC+00:00)

Meteor 2-12 Rocket - Pass Details

Date: 28 April 2021
Orbit: 935 x 958 km, 82.5° (Epoch: 16 May)

Event Time Altitude Azimuth Distance (km) Brightness Sun altitude
Rises 23:59:24 0° 345° (NNW) 3,624 8.5 -29.8°
Reaches altitude 10° 00:02:01 10° 339° (NNW) 2,671 7.5 -29.8°
Enters shadow 00:07:23 42° 278° (W) 1,316 5.1 -29.7°
